FW1294 Weather Reports


Display with metric or nautical units.
time (UTC)temp
F
wind
direction
speed
MPH
gust
MPH
rain 1hr
in
rain 24hr
in
rain mn
in
humidity
%
barometer
mb
20211129115321 41 300 4.0 11.0 0.00 0.00 0.00 55 1015.6
20211129114326 42 330 6.0 18.0 0.00 0.00 0.00 55 1015.5
20211129113539 42 330 8.0 18.0 0.00 0.00 0.00 54 1015.4
20211129112729 42 255 2.0 17.0 0.00 0.00 0.00 56 1015.3
20211129111926 42 315 4.0 14.0 0.00 0.00 0.00 55 1015.2
20211129111307 42 315 6.0 15.0 0.00 0.00 0.00 55 1015.1
20211129110425 42 315 6.0 16.0 0.00 0.00 0.00 56 1014.8
20211129105859 42 315 5.0 12.0 0.00 0.00 0.00 57 1014.6
20211129105351 42 315 4.0 18.0 0.00 0.00 0.00 57 1014.5
20211129104717 42 300 4.0 18.0 0.00 0.00 0.00 59 1014.4
20211129104050 42 315 3.0 8.0 0.00 0.00 0.00 61 1014.3
20211129103313 42 315 3.0 17.0 0.00 0.00 0.00 59 1014.2
20211129102456 42 315 6.0 17.0 0.00 0.00 0.00 59 1013.9
20211129101632 42 315 4.0 11.0 0.00 0.00 0.00 59 1013.8
20211129100925 42 270 4.0 11.0 0.00 0.00 0.00 59 1013.5
20211129100002 42 315 4.0 8.0 0.00 0.00 0.00 60 1013.5
20211129095245 42 330 5.0 9.0 0.00 0.00 0.00 60 1013.3
20211129094324 42 315 5.0 10.0 0.00 0.00 0.00 60 1013.2
20211129093731 42 330 5.0 8.0 0.00 0.00 0.00 61 1013.2
20211129092836 42 345 4.0 18.0 0.00 0.00 0.00 61 1013.0
20211129092254 42 315 5.0 18.0 0.00 0.00 0.00 62 1012.9
20211129091509 41 345 3.0 7.0 0.00 0.00 0.00 62 1012.9
20211129090707 42 315 2.0 6.0 0.00 0.00 0.00 62 1012.8
20211129085917 42 330 3.0 6.0 0.00 0.00 0.00 61 1012.6
20211129085022 42 330 2.0 10.0 0.00 0.00 0.00 62 1012.7
20211129084227 42 330 5.0 10.0 0.00 0.00 0.00 63 1012.7
20211129083348 41 360 2.0 7.0 0.00 0.00 0.00 66 1012.7
20211129082652 41 30 2.0 0.0 0.00 0.00 0.00 67 1012.7
20211129081654 41 270 1.0 6.0 0.00 0.00 0.00 68 1012.7
20211129080942 41 30 2.0 0.0 0.00 0.00 0.00 66 1012.4
20211129080312 41 360 0.0 0.0 0.00 0.00 0.00 67 1012.2
20211129075440 41 0 1.0 0.0 0.00 0.00 0.00 68 1012.2
20211129074932 41 315 2.0 0.0 0.00 0.00 0.00 67 1012.1
20211129073944 41 360 1.0 0.0 0.00 0.00 0.00 69 1012.1
20211129073412 41 255 0.0 0.0 0.00 0.00 0.00 70 1012.0
20211129072553 41 60 2.0 0.0 0.00 0.00 0.00 71 1012.0
20211129072014 41 45 0.0 0.0 0.00 0.00 0.00 72 1011.9
20211129071419 41 180 0.0 0.0 0.00 0.00 0.00 74 1011.8
20211129070546 41 315 0.0 0.0 0.00 0.00 0.00 75 1011.5
20211129065846 41 225 0.0 0.0 0.00 0.00 0.00 75 1011.4
20211129064956 42 225 0.0 0.0 0.00 0.00 0.00 75 1011.1
20211129063956 42 360 0.0 0.0 0.00 0.00 0.00 71 1011.0
20211129063414 42 360 0.0 0.0 0.00 0.00 0.00 70 1011.0
20211129062909 42 360 0.0 0.0 0.00 0.00 0.00 71 1011.0
20211129062230 43 360 0.0 0.0 0.00 0.00 0.00 71 1010.9
20211129061425 43 360 0.0 0.0 0.00 0.00 0.00 69 1010.9
20211129060814 43 360 0.0 0.0 0.00 0.00 0.00 67 1010.9
20211129060303 44 330 2.0 0.0 0.00 0.00 0.00 68 1010.8
20211129055425 44 315 1.0 0.0 0.00 0.00 0.00 67 1010.9
20211129054648 44 225 0.0 0.0 0.00 0.00 0.00 68 1011.0
20211129053749 45 45 0.0 0.0 0.00 0.00 0.00 67 1011.0
20211129052932 45 0 0.0 0.0 0.00 0.00 0.00 67 1011.0
20211129052135 45 135 0.0 0.0 0.00 0.00 0.00 67 1010.9
20211129051450 45 300 1.0 0.0 0.00 0.00 0.00 67 1010.9
20211129050900 45 150 1.0 0.0 0.00 0.00 0.00 69 1010.9
20211129050109 46 180 1.0 0.0 0.00 0.00 0.00 70 1010.9
20211129045207 46 180 0.0 0.0 0.00 0.00 0.00 71 1011.0
20211129044511 46 135 0.0 0.0 0.00 0.00 0.00 72 1011.0
20211129043859 46 180 0.0 0.0 0.00 0.00 0.00 74 1011.0
20211129043256 46 180 0.0 0.0 0.00 0.00 0.00 74 1011.1
20211129042650 46 135 0.0 0.0 0.00 0.00 0.00 76 1011.1
20211129042026 46 135 1.0 0.0 0.00 0.00 0.00 80 1011.0
20211129041306 46 135 1.0 0.0 0.00 0.00 0.00 80 1011.0
20211129040451 45 135 0.0 0.0 0.00 0.00 0.00 82 1011.0
20211129035900 45 315 0.0 0.0 0.00 0.00 0.00 82 1011.0
20211129035210 45 135 0.0 0.0 0.00 0.00 0.00 85 1011.0
20211129034518 46 270 0.0 0.0 0.00 0.00 0.00 85 1011.0
20211129033753 46 270 0.0 0.0 0.00 0.00 0.00 83 1011.0
20211129032906 45 165 0.0 0.0 0.00 0.00 0.00 83 1011.1
20211129032143 45 180 0.0 0.0 0.00 0.00 0.00 85 1011.1
20211129031515 45 180 0.0 0.0 0.00 0.00 0.00 84 1011.2
20211129030527 45 180 0.0 0.0 0.00 0.00 0.00 83 1011.2
20211129025826 46 180 0.0 0.0 0.00 0.00 0.00 82 1011.2
20211129025040 46 360 0.0 0.0 0.00 0.00 0.00 80 1011.2
20211129024413 46 360 0.0 0.0 0.00 0.00 0.00 78 1011.2
20211129023817 46 315 0.0 0.0 0.00 0.00 0.00 78 1011.2
20211129022931 46 315 0.0 0.0 0.00 0.00 0.00 78 1011.2
20211129022404 46 315 0.0 0.0 0.00 0.00 0.00 78 1011.2
20211129021839 46 15 0.0 0.0 0.00 0.00 0.00 79 1011.1
20211129021015 46 45 0.0 0.0 0.00 0.00 0.00 79 1011.1
20211129020054 46 45 0.0 0.0 0.00 0.00 0.00 77 1011.0
20211129015227 47 45 0.0 0.0 0.00 0.00 0.00 76 1011.1
20211129014558 47 135 0.0 0.0 0.00 0.00 0.00 74 1011.1
20211129013858 47 135 0.0 0.0 0.00 0.00 0.00 76 1011.1
20211129013003 47 45 0.0 0.0 0.00 0.00 0.00 73 1011.1
20211129012450 47 45 0.0 0.0 0.00 0.00 0.00 72 1011.0
20211129011508 48 45 0.0 0.0 0.00 0.00 0.00 71 1011.0
20211129010640 48 45 0.0 0.0 0.00 0.00 0.00 70 1010.9
20211129010130 48 45 0.0 0.0 0.00 0.00 0.00 70 1011.0
20211129005238 48 45 0.0 0.0 0.00 0.00 0.00 70 1011.0
20211129004425 48 45 0.0 0.0 0.00 0.00 0.00 70 1010.9
20211129003741 48 45 0.0 0.0 0.00 0.00 0.00 70 1010.8
20211129002758 48 45 0.0 0.0 0.00 0.00 0.00 71 1010.9
20211129001946 48 45 0.0 0.0 0.00 0.00 0.00 71 1010.8
20211129001431 48 45 0.0 0.0 0.00 0.00 0.00 71 1010.8
20211129000714 48 45 0.0 0.0 0.00 0.00 0.00 71 1010.9
20211129000049 48 45 0.0 0.0 0.00 0.00 0.00 71 1010.9
20211128235154 49 45 0.0 0.0 0.00 0.00 0.00 72 1010.9
20211128234350 49 45 0.0 0.0 0.00 0.00 0.00 71 1010.9
20211128233842 49 45 0.0 0.0 0.00 0.00 0.00 71 1010.8
20211128233246 49 45 0.0 0.0 0.00 0.00 0.00 70 1010.9
20211128232603 49 45 0.0 0.0 0.00 0.00 0.00 71 1010.8
20211128231939 49 45 0.0 0.0 0.00 0.00 0.00 70 1010.7
20211128231257 50 45 0.0 0.0 0.00 0.00 0.00 70 1010.5
20211128230747 50 45 0.0 0.0 0.00 0.00 0.00 69 1010.5
20211128225940 50 45 0.0 0.0 0.00 0.00 0.00 67 1010.4
20211128225145 50 90 0.0 0.0 0.00 0.00 0.00 66 1010.4
20211128224627 51 135 0.0 0.0 0.00 0.00 0.00 68 1010.4
20211128223840 51 135 0.0 0.0 0.00 0.00 0.00 67 1010.3
20211128223258 51 135 0.0 0.0 0.00 0.00 0.00 65 1010.3
20211128222708 51 135 0.0 0.0 0.00 0.00 0.00 65 1010.2
20211128222203 52 135 0.0 0.0 0.00 0.00 0.00 65 1010.2
20211128221320 52 135 0.0 0.0 0.00 0.00 0.00 64 1010.1
20211128220539 52 135 0.0 0.0 0.00 0.00 0.00 64 1010.1
20211128215624 53 270 0.0 0.0 0.00 0.00 0.00 61 1010.1
20211128214801 54 225 0.0 0.0 0.00 0.00 0.00 58 1010.3
20211128214258 54 225 0.0 0.0 0.00 0.00 0.00 60 1010.4
20211128213751 54 225 0.0 0.0 0.00 0.00 0.00 58 1010.4
20211128213055 55 180 0.0 0.0 0.00 0.00 0.00 58 1010.3
20211128212319 55 180 0.0 0.0 0.00 0.00 0.00 56 1010.3
20211128211539 55 180 0.0 6.0 0.00 0.00 0.00 55 1010.2
20211128210907 56 195 3.0 6.0 0.00 0.00 0.00 52 1010.1
20211128205947 56 180 3.0 0.0 0.00 0.00 0.00 54 1010.2
20211128205400 56 180 0.0 0.0 0.00 0.00 0.00 51 1010.3
20211128204419 56 180 1.0 0.0 0.00 0.00 0.00 49 1010.2
20211128203534 57 195 3.0 0.0 0.00 0.00 0.00 49 1010.2
20211128202939 57 180 3.0 6.0 0.00 0.00 0.00 48 1010.1
20211128202103 57 180 3.0 0.0 0.00 0.00 0.00 48 1010.0
20211128201125 58 165 3.0 6.0 0.00 0.00 0.00 47 1010.0
20211128200209 58 180 2.0 0.0 0.00 0.00 0.00 49 1010.1
20211128195558 58 210 2.0 6.0 0.00 0.00 0.00 48 1010.1
20211128195035 58 165 4.0 0.0 0.00 0.00 0.00 46 1010.2
20211128194218 58 180 3.0 5.0 0.00 0.00 0.00 46 1010.2
20211128193253 59 210 3.0 6.0 0.00 0.00 0.00 44 1010.3
20211128192709 58 180 3.0 6.0 0.00 0.00 0.00 42 1010.3
20211128191737 58 225 1.0 0.0 0.00 0.00 0.00 45 1010.4
20211128191137 58 180 3.0 5.0 0.00 0.00 0.00 43 1010.4
20211128190554 58 180 2.0 5.0 0.00 0.00 0.00 45 1010.4
20211128185933 58 180 2.0 7.0 0.00 0.00 0.00 43 1010.5
20211128185340 58 195 4.0 7.0 0.00 0.00 0.00 43 1010.5
20211128184554 58 135 0.0 6.0 0.00 0.00 0.00 44 1010.5
20211128183820 58 180 4.0 6.0 0.00 0.00 0.00 45 1010.7
20211128183103 58 0 0.0 0.0 0.00 0.00 0.00 46 1010.8
20211128182119 58 180 2.0 6.0 0.00 0.00 0.00 44 1011.0
20211128181139 58 180 3.0 6.0 0.00 0.00 0.00 43 1011.1
20211128180224 58 360 1.0 7.0 0.00 0.00 0.00 43 1011.1
20211128175711 58 210 3.0 6.0 0.00 0.00 0.00 43 1011.1
20211128174712 58 195 4.0 8.0 0.00 0.00 0.00 43 1011.1
20211128173737 57 150 4.0 8.0 0.00 0.00 0.00 43 1011.3
20211128173002 57 180 4.0 7.0 0.00 0.00 0.00 44 1011.6
20211128172140 56 135 1.0 9.0 0.00 0.00 0.00 44 1011.8
20211128171511 56 210 3.0 9.0 0.00 0.00 0.00 44 1011.8
20211128170652 56 330 3.0 6.0 0.00 0.00 0.00 45 1012.0
20211128165755 56 270 3.0 5.0 0.00 0.00 0.00 44 1012.2
20211128164922 55 195 3.0 7.0 0.00 0.00 0.00 43 1012.3
20211128163938 56 270 2.0 7.0 0.00 0.00 0.00 42 1012.6
20211128163142 56 180 3.0 5.0 0.00 0.00 0.00 42 1012.7
20211128162411 55 195 3.0 9.0 0.00 0.00 0.00 45 1012.9
20211128161721 55 255 4.0 9.0 0.00 0.00 0.00 45 1013.1
20211128160909 54 195 3.0 6.0 0.00 0.00 0.00 45 1013.3
20211128160408 54 255 1.0 6.0 0.00 0.00 0.00 46 1013.5
20211128155454 54 165 3.0 6.0 0.00 0.00 0.00 46 1013.7
20211128154754 54 210 2.0 0.0 0.00 0.00 0.00 48 1013.8
20211128154008 54 195 3.0 0.0 0.00 0.00 0.00 47 1014.1
20211128153008 55 300 2.0 8.0 0.00 0.00 0.00 49 1014.2
20211128152224 54 165 4.0 8.0 0.00 0.00 0.00 46 1014.3
20211128151631 54 270 3.0 6.0 0.00 0.00 0.00 51 1014.3
20211128150806 53 180 5.0 0.0 0.00 0.00 0.00 51 1014.4
20211128145815 53 165 3.0 6.0 0.00 0.00 0.00 53 1014.4
20211128145252 52 180 3.0 0.0 0.00 0.00 0.00 53 1014.4
20211128144359 51 180 3.0 9.0 0.00 0.00 0.00 54 1014.2
20211128143818 51 195 3.0 7.0 0.00 0.00 0.00 54 1014.2
20211128143218 50 195 2.0 6.0 0.00 0.00 0.00 57 1014.1
20211128142436 50 210 4.0 8.0 0.00 0.00 0.00 57 1014.2
20211128141540 49 180 3.0 7.0 0.00 0.00 0.00 57 1014.0
20211128141020 48 180 4.0 6.0 0.00 0.00 0.00 60 1014.0
20211128140110 47 180 3.0 8.0 0.00 0.00 0.00 64 1014.2
20211128135434 45 180 4.0 7.0 0.00 0.00 0.00 67 1014.1
20211128134858 44 180 3.0 0.0 0.00 0.00 0.00 73 1014.0
20211128134036 41 165 3.0 5.0 0.00 0.00 0.00 85 1013.8
20211128133405 38 150 2.0 0.0 0.00 0.00 0.00 90 1013.8
20211128132606 37 180 2.0 0.0 0.00 0.00 0.00 90 1013.9
20211128131818 36 135 1.0 0.0 0.00 0.00 0.00 90 1013.9
20211128131212 36 135 0.0 0.0 0.00 0.00 0.00 90 1013.7
20211128130439 36 135 2.0 0.0 0.00 0.00 0.00 90 1013.6
20211128125639 35 135 0.0 0.0 0.00 0.00 0.00 90 1013.6
20211128125130 35 135 0.0 0.0 0.00 0.00 0.00 90 1013.6
20211128124137 35 135 0.0 0.0 0.00 0.00 0.00 90 1013.6
20211128123435 35 135 0.0 0.0 0.00 0.00 0.00 90 1013.5
20211128122559 35 135 0.0 0.0 0.00 0.00 0.00 90 1013.5
20211128121729 35 135 1.0 0.0 0.00 0.00 0.00 90 1013.5
20211128120852 35 135 0.0 0.0 0.00 0.00 0.00 90 1013.5
20211128120131 35 135 0.0 0.0 0.00 0.00 0.00 90 1013.5